OE3WYC-1 Weather Reports


time (UTC)temp
F
wind
direction
speed
knots
gust
knots
rain 1hr
in
rain 24hr
in
rain mn
in
humidity
%
barometer
mb
20260504151005 80 203 0.0 5.2 0.00 0.00 0.00 30 1010.3
20260504150506 80 203 0.0 5.2 0.00 0.00 0.00 30 1010.4
20260504141005 81 196 0.0 6.1 0.00 0.00 0.00 31 1010.7
20260504140506 81 195 0.0 6.1 0.00 0.00 0.00 31 1010.8
20260504130506 82 186 0.0 6.1 0.00 0.00 0.00 32 1011.8
20260504110505 79 193 0.0 6.1 0.00 0.00 0.00 39 1013.1
20260504100505 76 198 0.0 5.2 0.00 0.00 0.00 43 1014.1
20260504082006 70 203 0.0 3.5 0.00 0.00 0.00 52 1014.6
20260504081506 70 203 3.5 3.5 0.00 0.00 0.00 52 1014.6
20260504081005 69 203 0.0 3.5 0.00 0.00 0.00 52 1014.8
20260504080505 69 203 0.0 3.5 0.00 0.00 0.00 52 1014.8
20260504050005 56 0 0.0 0.0 0.00 0.00 0.00 65 1013.9
20260504045506 55 0 0.0 0.0 0.00 0.00 0.00 64 1013.9
20260504045007 55 0 0.0 0.0 0.00 0.00 0.00 64 1013.8
20260504044505 55 0 0.0 0.0 0.00 0.00 0.00 64 1013.7
20260504044005 55 0 0.0 0.0 0.00 0.00 0.00 64 1013.8
20260504043007 55 0 0.0 0.0 0.00 0.00 0.00 63 1013.8
20260504042505 56 0 0.0 0.0 0.00 0.00 0.00 62 1013.7
20260504041506 56 0 0.0 0.0 0.00 0.00 0.00 62 1013.7
20260504041005 56 0 0.0 0.0 0.00 0.00 0.00 62 1013.6
20260504040507 56 0 0.0 0.0 0.00 0.00 0.00 62 1013.6
20260504040005 57 0 0.0 0.0 0.00 0.00 0.00 62 1013.5
20260504035505 57 0 0.0 0.0 0.00 0.00 0.00 62 1013.6
20260504034506 57 0 0.0 0.0 0.00 0.00 0.00 62 1013.6
20260504034006 57 0 0.0 0.0 0.00 0.00 0.00 62 1013.7
20260504033506 57 0 0.0 0.0 0.00 0.00 0.00 62 1013.6
20260504033005 57 0 0.0 0.0 0.00 0.00 0.00 62 1013.6
20260504032505 56 0 0.0 0.0 0.00 0.00 0.00 62 1013.6
20260504031506 56 0 0.0 0.0 0.00 0.00 0.00 60 1013.6
20260504031005 57 0 0.0 0.0 0.00 0.00 0.00 60 1013.6
20260504030505 57 0 0.0 0.0 0.00 0.00 0.00 60 1013.4
20260504030007 57 0 0.0 0.0 0.00 0.00 0.00 60 1013.8
20260504025505 57 0 0.0 0.0 0.00 0.00 0.00 59 1013.7
20260504025005 57 0 0.0 0.0 0.00 0.00 0.00 59 1013.8
20260504024505 57 0 0.0 0.0 0.00 0.00 0.00 59 1013.5
20260504024006 58 0 0.0 0.0 0.00 0.00 0.00 59 1013.5
20260504023506 58 0 0.0 0.0 0.00 0.00 0.00 59 1013.6
20260504023005 58 0 0.0 0.0 0.00 0.00 0.00 59 1013.6
20260504022505 58 0 0.0 0.0 0.00 0.00 0.00 59 1013.6
20260504022006 58 0 0.0 0.0 0.00 0.00 0.00 58 1013.5
20260504021505 58 0 0.0 0.0 0.00 0.00 0.00 58 1013.7
20260504021007 58 0 0.0 0.0 0.00 0.00 0.00 58 1013.7
20260504015505 58 0 0.0 0.0 0.00 0.00 0.00 57 1013.7
20260504015005 58 203 0.0 6.1 0.00 0.00 0.00 57 1013.7
20260504014505 58 203 0.0 7.0 0.00 0.00 0.00 57 1013.7
20260504014007 58 203 0.0 7.0 0.00 0.00 0.00 57 1013.6
20260504013505 58 0 0.0 0.0 0.00 0.00 0.00 57 1013.6
20260504013006 58 0 0.0 0.0 0.00 0.00 0.00 57 1013.6
20260504012505 58 0 0.0 0.0 0.00 0.00 0.00 56 1013.5
20260504012006 58 0 0.0 0.0 0.00 0.00 0.00 56 1013.4
20260504011005 58 0 0.0 0.0 0.00 0.00 0.00 56 1013.3
20260504010005 58 0 0.0 0.0 0.00 0.00 0.00 55 1013.3
20260504005506 58 0 0.0 0.0 0.00 0.00 0.00 55 1013.2
20260504005005 59 0 0.0 0.0 0.00 0.00 0.00 55 1013.1
20260504004505 59 0 0.0 0.0 0.00 0.00 0.00 55 1013.1
20260504004005 59 0 0.0 0.0 0.00 0.00 0.00 54 1013.1
20260504003506 59 0 0.0 0.0 0.00 0.00 0.00 54 1013.2
20260504003006 59 0 0.0 0.0 0.00 0.00 0.00 54 1013.1
20260504002005 60 0 0.0 0.0 0.00 0.00 0.00 53 1013.2
20260504001005 60 0 0.0 0.0 0.00 0.00 0.00 52 1013.3
20260504000505 60 0 0.0 0.0 0.00 0.00 0.00 52 1013.3
20260504000006 60 0 0.0 0.0 0.00 0.00 0.00 51 1013.6
20260503235505 60 0 0.0 0.0 0.00 0.00 0.00 51 1013.6
20260503235007 60 0 0.0 0.0 0.00 0.00 0.00 51 1013.5
20260503234505 61 0 0.0 0.0 0.00 0.00 0.00 51 1013.6
20260503234005 61 0 0.0 0.0 0.00 0.00 0.00 51 1013.5
20260503233506 61 0 0.0 0.0 0.00 0.00 0.00 51 1013.5
20260503233006 61 0 0.0 0.0 0.00 0.00 0.00 50 1013.6
20260503232505 61 0 0.0 0.0 0.00 0.00 0.00 50 1013.7
20260503232005 61 0 0.0 0.0 0.00 0.00 0.00 50 1013.5
20260503231505 61 0 0.0 0.0 0.00 0.00 0.00 50 1013.6
20260503231007 61 0 0.0 0.0 0.00 0.00 0.00 50 1013.6
20260503230505 61 0 0.0 0.0 0.00 0.00 0.00 50 1013.6
20260503230007 62 0 0.0 0.0 0.00 0.00 0.00 49 1013.6
20260503225505 62 0 0.0 0.0 0.00 0.00 0.00 49 1013.5
20260503225007 62 0 0.0 0.0 0.00 0.00 0.00 49 1013.6
20260503224505 62 0 0.0 0.0 0.00 0.00 0.00 49 1013.6
20260503223505 62 0 0.0 0.0 0.00 0.00 0.00 48 1013.8
20260503223007 62 0 0.0 0.0 0.00 0.00 0.00 48 1013.8
20260503222505 62 0 0.0 0.0 0.00 0.00 0.00 48 1013.8
20260503222005 62 112 0.0 4.3 0.00 0.00 0.00 48 1013.8
20260503221507 62 112 0.0 4.3 0.00 0.00 0.00 47 1013.8
20260503221005 63 0 0.0 0.0 0.00 0.00 0.00 47 1014.0
20260503220505 63 0 0.0 0.0 0.00 0.00 0.00 47 1014.0
20260503220006 63 0 0.0 0.0 0.00 0.00 0.00 47 1013.9
20260503215006 63 0 0.0 0.0 0.00 0.00 0.00 47 1014.0
20260503214505 63 0 0.0 0.0 0.00 0.00 0.00 47 1013.9
20260503213505 63 0 0.0 0.0 0.00 0.00 0.00 47 1013.9
20260503213005 64 0 0.0 0.0 0.00 0.00 0.00 47 1013.7
20260503212505 64 0 0.0 0.0 0.00 0.00 0.00 47 1014.1
20260503212005 64 0 0.0 0.0 0.00 0.00 0.00 47 1014.1
20260503211506 64 203 0.0 5.2 0.00 0.00 0.00 46 1014.1
20260503211005 64 203 0.0 5.2 0.00 0.00 0.00 46 1014.1
20260503210505 64 0 0.0 0.0 0.00 0.00 0.00 46 1014.0
20260503210005 65 0 0.0 0.0 0.00 0.00 0.00 46 1014.0
20260503205506 65 203 0.0 2.6 0.00 0.00 0.00 46 1014.0
20260503205005 65 203 0.0 2.6 0.00 0.00 0.00 45 1014.1
20260503204505 65 203 0.0 1.7 0.00 0.00 0.00 45 1014.1
20260503203505 65 181 0.0 1.7 0.00 0.00 0.00 45 1014.3
20260503203005 66 181 0.0 1.7 0.00 0.00 0.00 44 1014.1
20260503202505 66 203 0.0 0.9 0.00 0.00 0.00 44 1014.2
20260503202006 66 200 0.0 4.3 0.00 0.00 0.00 44 1014.2
20260503201005 66 195 0.0 5.2 0.00 0.00 0.00 43 1014.3
20260503200007 67 203 0.0 4.3 0.00 0.00 0.00 43 1014.2
20260503195505 67 203 0.0 4.3 0.00 0.00 0.00 42 1014.3
20260503195005 67 0 0.0 0.0 0.00 0.00 0.00 42 1014.3
20260503194506 67 112 0.0 4.3 0.00 0.00 0.00 42 1014.2
20260503194005 67 174 0.0 6.1 0.00 0.00 0.00 42 1014.2
20260503193507 68 203 0.0 6.1 0.00 0.00 0.00 42 1014.2
20260503193005 68 0 0.0 0.0 0.00 0.00 0.00 42 1014.3
20260503192505 68 0 0.0 0.0 0.00 0.00 0.00 41 1014.4
20260503192005 68 0 0.0 0.0 0.00 0.00 0.00 41 1014.4
20260503191506 68 0 0.0 0.0 0.00 0.00 0.00 41 1014.4
20260503191006 68 0 0.0 0.0 0.00 0.00 0.00 41 1014.4
20260503190505 68 0 0.0 0.0 0.00 0.00 0.00 41 1014.4
20260503190005 69 0 0.0 0.0 0.00 0.00 0.00 41 1014.3
20260503185005 69 0 0.0 0.0 0.00 0.00 0.00 40 1014.3
20260503184505 69 0 0.0 0.0 0.00 0.00 0.00 40 1014.1
20260503184005 69 0 0.0 0.0 0.00 0.00 0.00 40 1014.1
20260503183506 69 0 0.0 0.0 0.00 0.00 0.00 40 1014.2
20260503183005 70 0 0.0 0.0 0.00 0.00 0.00 39 1014.2
20260503182506 70 0 0.0 0.0 0.00 0.00 0.00 39 1014.0
20260503182006 70 0 0.0 0.0 0.00 0.00 0.00 39 1013.8
20260503181506 71 0 0.0 0.0 0.00 0.00 0.00 37 1014.0
20260503180504 71 0 0.0 0.0 0.00 0.00 0.00 38 1013.7
20260503175507 71 0 0.0 0.0 0.00 0.00 0.00 36 1013.6
20260503175005 72 0 0.0 0.0 0.00 0.00 0.00 36 1013.7
20260503174505 72 181 0.0 3.5 0.00 0.00 0.00 36 1013.7
20260503174004 72 185 0.0 5.2 0.00 0.00 0.00 36 1013.6
20260503173506 73 188 0.0 5.2 0.00 0.00 0.00 36 1013.6
20260503173005 73 195 0.0 1.7 0.00 0.00 0.00 36 1013.7
20260503172505 73 200 0.0 5.2 0.00 0.00 0.00 35 1013.7
20260503172005 74 203 0.0 5.2 0.00 0.00 0.00 35 1013.7
20260503171506 74 141 0.0 7.8 0.00 0.00 0.00 35 1013.7
20260503171005 74 141 0.0 7.8 0.00 0.00 0.00 34 1013.6